Location: Palm Bay
(51.3944°N, 1.4222°E)
Time: 21:51:07
(UTC+00:00)

Daily predictions for brighter satellites

Satellite Brightness Start Highest point End
(mag) Time Altitude Azimuth Time Altitude Azimuth Time Altitude Azimuth
Meteor 2-9 Rocket 4.3 18:11:23 10° S 18:17:12 88° ESE 18:22:57 10° NNE
Cosmos 1300 Rocket 4.0 18:16:31 10° SSE 18:20:37 39° E 18:24:46 10° NNE
CENTAUR R/B 3.2 18:16:04 10° NW 18:23:55 77° NE 18:32:41 10° SE
Sich 1 Rocket 3.6 18:20:25 10° S 18:24:54 66° E 18:29:28 10° NNE
NOSS 2-2 (E) 3.2 18:21:34 10° SW 18:25:08 89° SE 18:29:21 10° NE
Cosmos 1833 Rocket 3.9 18:20:36 10° NNW 18:25:18 26° NE 18:29:58 10° E
Cosmos 2298 Rocket 4.3 18:21:53 10° S 18:26:56 45° ESE 18:32:01 10° NE
Cosmos 1975 3.7 18:24:09 10° SSW 18:28:10 56° WNW 18:32:11 10° N
Resurs 01 Rocket 3.7 18:27:02 10° ENE 18:28:18 11° NE 18:29:35 10° NE
Iridium 4 Rocket 4.0 18:24:08 10° S 18:29:23 72° W 18:35:06 10° N
CSL-04 Debris 4.1 18:26:10 10° SSE 18:31:32 76° ENE 18:36:57 10° NNW
Cosmos 1025 Rocket 3.0 18:28:52 10° N 18:33:15 67° ENE 18:37:37 10° SSE
Helios 1A Rocket 4.3 18:29:25 10° S 18:33:21 44° W 18:37:22 10° NNW
CSL-04 Rocket 3.7 18:28:03 10° SSE 18:33:30 75° ENE 18:39:03 10° NNW
NOSS 2-2 (D) 3.1 18:31:27 10° SW 18:35:00 88° SE 18:39:07 10° NE
ATLAS 2AS CENTAUR R/B 3.9 18:28:52 10° SSE 18:35:04 26° ESE 18:41:16 10° ENE
Cosmos 1937 Rocket 4.1 18:29:55 10° SW 18:35:06 62° WNW 18:40:17 10° NNE
Okean 2 Rocket 3.2 18:30:45 10° S 18:35:07 55° E 18:39:30 10° NNE
YAOGAN 1 2.8 18:31:44 10° S 18:36:04 76° WSW 18:40:25 10° NNW
ATLAS 3B R/B 3.3 18:29:44 10° NW 18:36:13 45° NNE 18:42:35 11° E
SKYMED 2 4.2 18:32:56 10° N 18:37:15 63° WNW 18:41:32 10° SSW
SWAS 4.4 18:34:43 10° NNW 18:39:03 82° ENE 18:43:19 10° SE
Abrixas rocket 3.0 18:37:13 10° W 18:39:50 33° SSW 18:42:11 12° SE
CREW DRAGON DEMO-1 DEB 3.5 18:38:43 10° W 18:41:39 48° SSW 18:44:16 12° SE
Cosmos 1513 Rocket 4.4 18:36:35 10° S 18:42:45 70° E 18:48:51 10° NNE
Cosmos 1536 Rocket 3.6 18:38:35 10° N 18:43:02 64° ENE 18:47:28 10° SSE
Cosmos 1125 Rocket 3.9 18:42:36 10° S 18:47:35 43° ESE 18:52:36 10° NE
SJ-6B 3.6 18:48:31 13° SE 18:51:22 30° ENE 18:54:45 10° N
USA 238 DEB 4.3 18:46:09 10° NW 18:53:15 64° SW 19:00:37 10° SSE
USA 238 4.3 18:46:16 10° NW 18:53:21 65° SW 19:00:44 10° SSE
CZ-4 R/B 2.8 18:49:44 10° S 18:53:44 43° W 18:57:43 10° NNW
Cosmos 2150 Rocket 4.0 18:49:05 10° SSW 18:54:27 69° ESE 18:59:54 10° NNE
SJ-11-01 4.4 18:50:01 10° SSE 18:54:44 83° WSW 18:59:27 10° NNW
Cosmos 1674 2.8 18:51:38 10° N 18:55:27 56° ENE 18:59:13 10° SSE
CZ-2C R/B 3.5 18:50:27 10° S 18:55:51 72° WSW 19:01:34 10° NNW
Cosmos 2026 Rocket 4.5 18:49:56 10° N 18:55:57 41° ENE 19:01:56 10° SE
Cosmos 1464 Rocket 3.9 18:49:57 10° S 18:56:06 82° E 19:02:20 10° NNE
Cosmos 1092 Rocket 4.2 18:50:15 10° N 18:56:16 51° ENE 19:02:17 10° SSE
Okean-O 4.3 18:53:32 10° SSW 18:57:38 36° W 19:01:46 10° NNW
Cosmos 2285 Rocket 4.2 18:52:24 10° S 18:58:21 46° ESE 19:04:23 10° NNE
MOS 1 Rocket 3.1 18:57:48 10° NNE 19:02:11 61° E 19:06:25 10° S
FREGAT/IRIS 3.1 19:04:41 28° E 19:05:03 29° ENE 19:07:24 10° N
ARGOS 3.2 19:06:02 10° SSE 19:11:24 85° WSW 19:16:51 10° NNW
CZ-2C R/B 3.1 19:07:03 10° NNE 19:12:20 42° E 19:17:38 10° SSE
Cosmos 1340 Rocket 3.8 19:15:11 25° E 19:15:22 25° E 19:18:41 10° NE
Cosmos 1733 3.7 19:13:48 12° SSE 19:17:01 37° E 19:20:34 10° NNE
Cosmos 2151 Rocket 3.7 19:13:18 10° SSW 19:17:47 80° W 19:22:20 10° N
Lacrosse 5 rocket 2.4 19:13:44 10° WNW 19:17:54 41° N 19:20:43 19° ENE
Cosmos 2082 Rocket 3.1 19:13:30 10° NNW 19:18:34 33° NE 19:21:17 22° E
MOS 1 4.3 19:13:13 10° SSE 19:18:50 66° ENE 19:24:31 10° NNW
NOSS 2-2 (C) 4.4 19:16:25 10° WSW 19:19:53 44° NW 19:24:01 10° NE
BREEZE-M DEB (TANK) 4.2 19:19:05 10° W 19:22:02 30° SSW 19:27:36 14° SE
DMSP B5D2-2 4.4 19:17:10 10° NNE 19:22:12 42° E 19:27:11 10° SSE
BREEZE-M R/B 4.2 19:12:58 10° WSW 19:22:57 48° S 19:24:25 30° ESE
Cosmos 494 Rocket 4.5 19:18:24 10° NNW 19:23:37 63° WSW 19:28:49 10° S
Meteor 1-15 Rocket 4.2 19:22:51 10° S 19:28:30 82° ESE 19:34:20 10° NNE
Cosmos 1805 3.1 19:25:00 10° S 19:28:52 70° E 19:32:48 10° NNE
OBJECT-B 1.2 19:28:48 40° E 19:29:03 41° ENE 19:32:09 10° N
Ariane Rocket 3.0 19:28:10 10° SSE 19:33:15 88° WSW 19:38:23 10° NNW
SL-08 RB Rocket 3.9 19:28:45 10° S 19:33:19 72° WSW 19:37:52 10° NNW
H-2A R/B 3.2 19:30:05 10° S 19:34:51 43° W 19:39:47 10° NNW
Cosmos 1269 Rocket 4.0 19:30:16 10° NNW 19:35:37 84° WSW 19:39:33 19° SSE
Cosmos 1626 1.9 19:37:02 10° N 19:40:46 78° ENE 19:42:02 39° SSE
Okean 1-7 Rocket 4.1 19:36:39 10° N 19:41:01 41° ENE 19:41:50 38° E
Terra 4.0 19:42:51 11° NE 19:42:55 11° NE 19:44:19 10° NNE
Cosmos 2263 Rocket 4.4 19:39:12 10° W 19:43:43 24° NW 19:48:16 10° NNE
MetOp-A 4.1 19:40:20 15° SSE 19:44:48 88° WSW 19:50:12 10° NNW
USA 186 2.7 19:42:34 17° S 19:44:49 47° W 19:48:02 10° NNW
COSMOS 2406 3.1 19:39:07 10° NNW 19:44:50 86° ENE 19:47:55 29° SSE
Cosmos 1455 Rocket 4.1 19:47:18 28° ENE 19:47:18 28° ENE 19:50:05 10° NNE
Cosmos 1844 Rocket 3.1 19:41:49 10° SW 19:47:21 64° NW 19:52:57 10° NNE
ISS -3.9 19:44:05 10° W 19:47:28 84° N 19:47:46 72° ENE
ATLAS CENTAUR R/B 3.8 19:48:13 10° NNW 19:49:19 11° N 19:50:25 10° NNE
Cosmos 2278 Rocket 2.6 19:51:33 37° ESE 19:51:33 37° ESE 19:56:42 10° NE
Lacrosse 4 Rocket 1.6 19:48:29 10° NNW 19:52:27 48° NE 19:52:52 46° ENE
Cosmos 1844 4.0 19:49:21 10° SW 19:55:01 68° NW 20:00:39 10° NNE
Meteor 2-5 Rocket 4.1 19:49:27 10° NNW 19:55:06 67° W 20:00:47 10° S
Meteor 1-22 Rocket 4.3 19:50:30 10° S 19:56:24 73° E 20:02:30 10° NNE
Meteor 1-24 Rocket 3.8 19:51:52 10° NNW 19:57:27 81° W 20:01:37 19° S
Cosmos 909 Rocket 4.2 19:50:53 10° NW 19:57:30 61° NE 19:59:54 38° ESE
Exosat Rocket 3.6 19:54:09 10° SSW 19:59:23 75° WNW 20:04:29 10° NNE
Cosmos 2266 Rocket 4.4 19:53:54 10° N 19:59:33 39° ENE 20:00:34 37° E
SL-14 R/B 3.4 19:56:46 10° NNW 20:00:42 74° W 20:01:55 43° S
Okean 1 Rocket 3.6 19:57:06 10° SSW 20:01:32 62° WNW 20:06:01 10° N
Meteor 2-19 Rocket 4.4 19:55:30 10° N 20:01:36 62° ENE 20:03:47 39° SE
NOSS 3-4 (A) 3.3 19:56:29 10° SSW 20:02:23 70° SE 20:08:45 10° NE
NOSS 3-4 (C) 3.3 19:56:36 10° SSW 20:02:29 69° SE 20:08:51 10° NE
Resurs 01 Rocket 1.6 20:03:26 58° ESE 20:03:57 64° ENE 20:08:22 10° N
Cosmos 1833 Rocket 2.6 20:04:15 10° NNW 20:09:56 84° WSW 20:11:54 43° SSE
Cosmos 1470 4.3 20:12:29 25° NNE 20:12:29 25° NNE 20:14:15 10° NNE
Cosmos 1766 4.0 20:06:52 10° SSW 20:10:42 52° WNW 20:14:36 10° N
CZ-2C R/B 4.1 20:06:33 10° NNE 20:09:58 44° ENE 20:09:58 44° ENE
Cosmos 2251 Rocket 3.5 20:07:29 10° NNW 20:12:51 65° ENE 20:13:44 55° ESE
CENTAUR R/B 4.2 20:07:05 10° NW 20:14:27 40° WSW 20:22:00 11° S
ERS-1 Rocket 4.1 20:17:40 28° NE 20:17:40 28° NE 20:21:31 10° N
IGS 5A 4.3 20:18:58 38° NNE 20:18:58 38° NNE 20:22:00 10° N
ARIANE 5 R/B 3.0 20:20:05 49° NE 20:20:05 49° NE 20:23:44 10° N
SPOT 3 Rocket 3.7 20:20:50 41° S 20:22:39 72° WSW 20:27:49 10° NNW
Cosmos 1634 Rocket 4.2 20:18:46 10° SSW 20:24:55 70° WNW 20:31:09 10° N
ATLAS 2AS CENTAUR R/B 2.9 20:17:14 10° SW 20:25:13 84° SE 20:33:05 10° NE
ATLAS 3B R/B 2.9 20:20:31 10° NW 20:27:19 68° SW 20:29:50 41° SSE
Resurs 1-3 4.2 20:26:18 43° SSW 20:27:21 54° W 20:31:42 10° NNW
Landsat 7 4.0 20:27:58 55° NE 20:27:58 55° NE 20:32:16 10° N
Cosmos 1892 Rocket 4.1 20:23:30 10° NNW 20:27:46 55° W 20:28:36 47° SW
Meteor 1-21 Rocket 4.2 20:27:01 10° N 20:32:47 67° ENE 20:33:16 64° ESE
SPOT 5 4.0 20:33:48 35° NE 20:33:48 35° NE 20:38:05 10° N
Meteor 2-10 4.5 20:34:18 49° NE 20:34:18 49° NE 20:38:33 10° NNE
Cosmos 1655 Rocket 3.9 20:30:03 10° N 20:36:22 85° ENE 20:37:50 56° SSE
Cosmos 1461 3.8 20:35:16 10° NW 20:39:30 48° NNE 20:39:30 48° NNE
Cosmos 1340 Rocket 4.4 20:50:43 30° W 20:51:41 34° WNW 20:55:23 10° N
CZ-2C R/B 4.0 20:47:28 10° N 20:52:35 39° WNW 20:57:45 10° SW
Lacrosse 5 rocket 2.4 20:53:02 10° WNW 20:56:20 49° NW 20:56:20 49° NW
MetOp-B 4.3 20:58:51 65° WSW 20:59:05 66° WSW 21:04:27 10° NNW
Cosmos 2098 Rocket 4.1 20:53:59 10° NNW 21:00:45 67° W 21:01:45 57° SW
Cosmos 2279 Rocket 4.4 20:57:29 23° SSW 21:01:26 61° WNW 21:07:40 10° N
OBJECT-B 3.8 21:01:59 15° W 21:01:59 15° W 21:03:35 10° NW
Cosmos 2082 Rocket 2.5 20:57:28 10° NW 21:03:00 59° WSW 21:03:08 59° WSW
Spot 2 Rocket 3.8 21:05:26 65° NW 21:05:26 65° NW 21:09:49 10° NNW
Meteor 2-21 4.4 21:03:48 10° N 21:09:42 76° NE 21:09:42 76° NE
Cosmos 1809 Rocket 4.4 21:08:08 10° NNW 21:14:13 84° NW 21:14:13 84° NW
Terra 3.2 21:21:44 32° N 21:21:44 32° N 21:24:24 10° N
Cosmos 1140 Rocket 4.4 21:17:46 10° NNW 21:21:18 43° N 21:21:18 43° N
Cosmos 407 Rocket 4.3 21:22:50 10° NNW 21:26:26 46° NNW 21:26:26 46° NNW
SPOT 1/Viking Rocket 4.3 21:29:22 49° WNW 21:29:22 49° WNW 21:33:30 10° NNW
ATLAS CENTAUR R/B 4.1 21:26:39 10° NNW 21:27:26 14° NNW 21:27:26 14° NNW
Lacrosse 4 Rocket 3.8 21:27:35 10° WNW 21:29:10 18° WNW 21:29:10 18° WNW
Cosmos 2278 Rocket 3.0 21:33:01 29° WSW 21:35:32 48° NW 21:41:02 10° NNE
Resurs 01 Rocket 4.0 21:41:01 18° W 21:41:01 18° W 21:43:55 10° NW
USA 229 DEB 4.4 21:41:36 10° NW 21:48:25 47° NNE 21:49:03 46° NE
USA 229 4.4 21:41:42 10° NW 21:48:30 46° NNE 21:49:09 45° NE
ERS-1 Rocket 4.5 21:57:40 33° NW 21:57:40 33° NW 22:00:43 10° NNW
ATLAS 2AS CENTAUR R/B 4.0 22:09:26 10° W 22:16:59 44° NNW 22:24:19 10° NE
Cosmos 1943 Rocket 4.4 22:24:03 16° NNE 22:24:03 16° NNE 22:25:04 10° NNE
NOSS 3-1 (C) 4.3 22:31:32 10° NW 22:37:24 62° NNW 22:37:24 62° NNW
CZ-4C R/B 4.1 22:45:17 25° NNE 22:45:17 25° NNE 22:48:10 10° NE
COSMOS 2455 4.3 22:57:42 33° N 22:57:42 33° N 23:02:02 10° NNE
Cosmos 2297 Rocket 4.2 22:53:02 10° NNW 22:56:26 23° NNE 22:56:26 23° NNE
Cosmos 2369 Rocket 4.3 23:10:32 21° NNE 23:10:32 21° NNE 23:12:17 10° NNE
SL-16 R/B 4.2 23:50:37 25° NE 23:50:37 25° NE 23:55:09 10° N
